Regional Weather Roundup
Issued by NWS Upton, NY

Current Version | Previous Version | Graphics & Text | Print | Product List | Glossary Off
Versions: 1 2 3 4 5 6 7 8 9 10 11 12 13 14 15 16 17 18 19 20 21 22 23 24 25 26 27 28 29 30 31 32 33 34 35 36 37 38 39 40 41 42 43 44 45 46 47 48 49 50

000
ASUS41 KOKX 041908
RWROKX

REGIONAL WEATHER ROUNDUP
NATIONAL WEATHER SERVICE NEW YORK NY
300 PM EDT SAT JUL 04 2015

NOTE: "FAIR" INDICATES FEW OR NO CLOUDS BELOW 12,000 FEET WITH NO
SIGNIFICANT WEATHER AND/OR OBSTRUCTIONS TO VISIBILITY.

NYZ071-072-176-178-NJZ106-104-042000-
NEW YORK CITY METRO AREA


CITY           SKY/WX    TMP DP  RH WIND       PRES   REMARKS
CENTRAL PARK   CLOUDY    72  61  68 CALM      29.98F
LAGUARDIA APRT LGT RAIN  71  61  70 NE7       29.95F
KENNEDY INTL   LGT RAIN  71  60  68 NE10      29.95F
NEWARK/LIBERTY LGT RAIN  73  64  73 N10       29.95F
BRNX BOT. GARD   N/A     72  61  68 N3        29.95F
TETERBORO      LGT RAIN  74  59  59 VRB3      29.95F
$$

NYZ177-179-078>081-042000-
LONG ISLAND NEW YORK

CITY           SKY/WX    TMP DP  RH WIND       PRES   REMARKS
FARMINGDALE    CLOUDY    71  57  61 NE8       29.95F
ISLIP          LGT RAIN  73  62  68 NE8       29.93F
SHIRLEY        CLOUDY    73  62  68 N6        29.95S
WESTHAMPTON    CLOUDY    75  62  64 NE12      29.96R
MONTAUK POINT    N/A     72  60  66 NE10      29.97S
$$

NYZ052-065-067-042000-
HUDSON VALLEY

CITY           SKY/WX    TMP DP  RH WIND       PRES   REMARKS
WHITE PLAINS   LGT RAIN  71  61  70 E5        29.95F
NEWBURGH       PTSUNNY   66  63  88 VRB5      30.00S
MONTGOMERY     CLOUDY    68  63  84 CALM      29.97F
POUGHKEEPSIE   CLOUDY    67  61  81 NW3       29.97F
ALBANY         CLOUDY    67  62  84 S6        29.98F
$$

NJZ001-105-106-008-010-013-015-019>022-104-042000-
NEW JERSEY

CITY           SKY/WX    TMP DP  RH WIND       PRES   REMARKS
NEWARK/LIBERTY LGT RAIN  73  64  73 N10       29.95F
TETERBORO      LGT RAIN  74  59  59 VRB3      29.95F
CALDWELL       CLOUDY    72  58  61 E9        29.96F
MORRISTOWN     PTSUNNY   75  64  69 NE6       29.97S
SOMERVILLE     CLOUDY    75  61  61 NE7       29.93F
SUSSEX         CLOUDY    68  60  75 N5        29.98S
ANDOVER          N/A     69  62  78 VRB3      29.98F
TRENTON        CLOUDY    74  63  68 NE6       29.95R
MILLVILLE      CLOUDY    81  62  52 N10       29.91S
ATLANTIC CITY  PTSUNNY   77  64  64 E10       29.91F
WRIGHTSTOWN    PTSUNNY   73  61  67 NE12      29.92R
TOMS RIVER     PTSUNNY   73  55  53 NE9       29.93F
BELMAR         PTSUNNY   72  57  60 NE8       29.94S
$$

PAZ047>061-062-071-042000-
EASTERN PENNSYLVANIA

CITY           SKY/WX    TMP DP  RH WIND       PRES   REMARKS
PHILADELPHIA   CLOUDY    75  63  66 NE12      29.93S
ALLENTOWN      CLOUDY    74  62  66 NE6       29.96F
SCRANTON       CLOUDY    68  61  78 NE6       29.98R
$$

CTZ002-004>006-009-010-012-RIZ004-006-007-MAZ004-011-015-042000-
SOUTHERN NEW ENGLAND
 IN CT

CITY           SKY/WX    TMP DP  RH WIND       PRES   REMARKS
BRADLEY INTL   LGT RAIN  69  61  75 N8        29.98F
HARTFORD       LGT RAIN  70  60  70 N8        29.97F
DANBURY        CLOUDY    70  56  61 E9        29.97F
WTRBRY/OXFORD  CLOUDY    68  52  56 NE8       29.99F
BRIDGEPORT     CLOUDY    72  63  73 E7        29.95F
MERIDEN        CLOUDY    72  55  55 N6        29.97F
NEW HAVEN      CLOUDY    74  61  63 NE9       29.96F
CHESTER        FAIR      72  57  60 NE3       29.98S
GROTON         CLOUDY    71  54  54 E9        29.96S
WILLIMANTIC    CLOUDY    73  56  54 N6        29.98S

 IN RI

CITY           SKY/WX    TMP DP  RH WIND       PRES   REMARKS
PROVIDENCE     CLOUDY    74  51  44 CALM      29.98S
BLOCK ISLAND   PTSUNNY   68  55  64 NE6       29.97S
WESTERLY       CLOUDY    73  49  42 E9        29.98S

 IN MA

CITY           SKY/WX    TMP DP  RH WIND       PRES   REMARKS
BOSTON         CLOUDY    68  58  70 E7        29.98S
WORCESTER      LGT RAIN  68  57  68 NW5       30.02R
WESTFIELD      LGT RAIN  66  62  87 NE5       29.99F
PROVINCETOWN   CLOUDY    75  16  10 SE6       29.98F
NANTUCKET      CLOUDY    67  52  58 NE10      29.95S
$$

ANZ330-335-338-340-345-350-353-355-042000-
COASTAL MARINE OBSERVATIONS


STATION/POSITION TIME  SKY/WX   TEMP    WIND        PRES    VSBY  WAVE
                                AIR SEA DIR/SP/G                  HT/PER
                 (UTC)          (F)     (DEG/KT/KT) (MB)    (MI)  (FT/S)
NY HARB ENTRANCE 1850            71 69   20/ 10/ 14 1013.2          2/ 9
4S FIRE IS       1803               70                N/A           3/ 9
20S FIRE ISLAND  1850            69 69   20/ 12/ 14 1013.3          3/ 8
GREAT SOUTH BAY  1800            74 76   90/  4/  8   N/A
23SW MTP         1850            68 69   60/ 12/ 14 1013.6          3/ 8
HUDSON CANYON    NOT AVBL
KINGS POINT      1800            71 66   50/  3/  5 1014.2
CENTRAL LI SOUND NOT AVBL
EASTERN LI SOUND 1800            68 64   70/  8/ 10   N/A
ROBBINS REEF     1800            69      10/ 10/ 11 1013.1
$$


>>>>>>>>>>>>>>>>>>>>>>>>>>>> KEY <<<<<<<<<<<<<<<<<<<<<<<<<<<
>                                                          <
>     SKY/WX - SKY CONDITION/PRESENT WEATHER               <
>     TMP    - TEMPERATURE IN FAHRENHEIT                   <
>     DP     - DEWPOINT IN FAHRENHEIT                      <
>     RH     - RELATIVE HUMIDITY IN PERCENT                <
>     WIND   - DIRECTION AND SPEED IN MPH                  <
>     PRES   - MEAN SEA LEVEL PRESSURE IN INCHES OF HG     <
>     WCI    - WIND CHILL INDEX                            <
>     VSB    - VISIBILITY IN MILES                         <
>     HX     - HEAT INDEX                                  <
>     TC     - TEMPERATURE IN CELSIUS                      <
>     VRB    - VARIABLE WIND DIRECTION                     <
>                                                          <
>>>>>>>>>>>>>>>>>>>>>>>>>>>> KEY <<<<<<<<<<<<<<<<<<<<<<<<<<<




USA.gov is the U.S. government's official web portal to all federal, state and local government web resources and services.